Prescott, AZ

10:18 PM MST on December 09, 2019 (GMT -0700)
Love

Weather History for KPRC - October, 2019

Change the Weather History Date:

Thursday, October 3, 2019

  Actual Average Record
Temperature  
Mean Temperature 60 °F 61 °F  
Max Temperature 78 °F 76 °F 90 °F (1980)
Min Temperature 41 °F 46 °F 35 °F (2002)
Degree Days  
Heating Degree Days 6    
Month to date heating degree days 19  
Since 1 July heating degree days 46  
Cooling Degree Days 0    
Month to date cooling degree days 0  
Year to date cooling degree days 1130  
Growing Degree Days 10 (Base 50)    
Moisture  
Dew Point 35 °F    
Average Humidity 42    
Maximum Humidity 72    
Minimum Humidity 19    
Precipitation  
Precipitation 0.00 in 0.04 in 0.85 in (1968)
Month to date precipitation 0.00 0.11  
Year to date precipitation 10.29 11.28  
Sea Level Pressure  
Sea Level Pressure 29.95 in    
Wind  
Wind Speed 4 mph ()    
Max Wind Speed 16 mph    
Max Gust Speed 21 mph    
Visibility 10.0 miles    
Events      
T = Trace of Precipitation, MM = Missing Value Source: Averaged Metar Reports

Daily Weather History Graph

Daily Weather History Graph

Search for Another Location

Airport or City:

Astronomy

Oct. 03, 2019 Rise Set
Actual Time 6:25 AM MST 6:11 PM MST
Civil Twilight 6:00 AM MST 6:36 PM MST
Nautical Twilight 5:31 AM MST 7:05 PM MST
Astronomical Twilight 5:02 AM MST 7:34 PM MST
Moon 11:49 AM MST (10/3) 10:05 PM MST (10/3)
Length of Visible Light 12h 35m
Length of Day
11h 45m
Waxing Crescent, 31% of the Moon is Illuminated
Oct 3
Waxing Crescent
Oct 5
First Quarter
Oct 13
Full
Oct 21
Last Quarter
Oct 27
New

Hourly Weather History & Observations

Time (MST) Temp. Windchill Dew Point Humidity Pressure Visibility Wind Dir Wind Speed Gust Speed Precip Events Conditions
12:53 AM 46.0 °F 43.9 °F 34.0 °F 63% 29.96 in 10.0 mi South 4.6 mph - N/A   Clear
1:53 AM 45.0 °F 42.6 °F 30.0 °F 56% 29.96 in 10.0 mi SSW 4.6 mph - N/A   Clear
2:53 AM 45.0 °F - 27.0 °F 49% 29.94 in 10.0 mi Calm Calm - N/A   Clear
3:53 AM 43.0 °F 40.3 °F 25.0 °F 49% 29.96 in 10.0 mi SSW 4.6 mph - N/A   Clear
4:53 AM 42.1 °F 40.2 °F 25.0 °F 51% 29.97 in 10.0 mi South 3.5 mph - N/A   Clear
5:53 AM 44.1 °F - 24.1 °F 45% 29.98 in 10.0 mi Calm Calm - N/A   Clear
6:53 AM 44.1 °F 42.5 °F 26.1 °F 49% 30.00 in 10.0 mi SSW 3.5 mph - N/A   Clear
7:53 AM 52.0 °F - 32.0 °F 47% 30.02 in 10.0 mi Calm Calm - N/A   Clear
8:53 AM 59.0 °F - 33.1 °F 38% 30.01 in 10.0 mi NNE 5.8 mph - N/A   Clear
9:53 AM 64.9 °F - 33.1 °F 31% 30.01 in 10.0 mi Variable 3.5 mph - N/A   Clear
10:53 AM 72.0 °F - 30.9 °F 22% 29.99 in 10.0 mi Variable 3.5 mph - N/A   Clear
11:53 AM 75.0 °F - 32.0 °F 21% 29.96 in 10.0 mi West 8.1 mph - N/A   Clear
12:53 PM 77.0 °F - 33.1 °F 20% 29.94 in 10.0 mi SW 12.7 mph - N/A   Clear
1:53 PM 77.0 °F - 34.0 °F 21% 29.92 in 10.0 mi SW 12.7 mph 17.3 mph N/A   Clear
2:53 PM 77.0 °F - 32.0 °F 19% 29.91 in 10.0 mi SSW 10.4 mph - N/A   Clear
3:53 PM 75.9 °F - 37.9 °F 25% 29.91 in 10.0 mi South 10.4 mph - N/A   Clear
4:53 PM 73.9 °F - 41.0 °F 30% 29.91 in 10.0 mi SSW 9.2 mph - N/A   Clear
5:53 PM 72.0 °F - 41.0 °F 33% 29.92 in 10.0 mi South 8.1 mph - N/A   Clear
6:53 PM 66.9 °F - 43.0 °F 42% 29.93 in 10.0 mi SW 4.6 mph - N/A   Clear
7:53 PM 64.0 °F - 44.1 °F 48% 29.93 in 10.0 mi SSW 3.5 mph - N/A   Clear
8:53 PM 62.1 °F - 45.0 °F 53% 29.93 in 10.0 mi SSW 3.5 mph - N/A   Clear
9:53 PM 60.1 °F - 46.0 °F 60% 29.92 in 10.0 mi SSW 5.8 mph - N/A   Clear
10:53 PM 55.9 °F - 46.9 °F 72% 29.92 in 10.0 mi South 4.6 mph - N/A   Clear
11:53 PM 57.0 °F - 46.9 °F 69% 29.91 in 10.0 mi SSW 3.5 mph - N/A   Clear